FW4606 Weather Reports


time (UTC)temp
F
wind
direction
speed
knots
gust
knots
rain 1hr
in
rain 24hr
in
rain mn
in
humidity
%
barometer
mb
20260831144651 78 149 0.9 2.6 0.00 0.00 0.00 90 1010.2
20260831144146 78 143 0.9 2.6 0.00 0.00 0.00 89 1010.0
20260831143640 77 149 0.9 3.5 0.00 0.00 0.00 90 1010.0
20260831143405 77 201 0.9 3.5 0.00 0.00 0.00 91 1010.0
20260831142628 77 84 0.0 1.7 0.00 0.00 0.00 91 1009.9
20260831142121 77 149 0.0 2.6 0.00 0.00 0.00 91 1009.9
20260831141616 76 89 0.9 3.5 0.00 0.00 0.00 91 1009.8
20260831141109 77 120 0.9 3.5 0.00 0.00 0.00 91 1009.7
20260831140604 77 110 0.9 2.6 0.00 0.00 0.00 92 1009.6
20260831140328 76 127 0.9 2.6 0.00 0.00 0.00 92 1009.6
20260831135552 76 124 1.7 3.5 0.00 0.00 0.00 93 1009.5
20260831135046 75 127 1.7 3.5 0.00 0.00 0.00 93 1009.5
20260831134811 75 148 0.9 3.5 0.00 0.00 0.00 94 1009.3
20260831134034 74 225 0.9 3.5 0.00 0.00 0.00 95 1009.2
20260831133528 74 131 0.9 2.6 0.00 0.00 0.00 96 1009.1
20260831133022 73 158 0.0 1.7 0.00 0.00 0.00 97 1009.1
20260831132516 73 136 0.0 1.7 0.00 0.00 0.00 97 1009.2
20260831132010 73 160 0.0 1.7 0.00 0.00 0.00 97 1009.1
20260831131504 72 226 0.0 1.7 0.00 0.00 0.00 97 1009.1
20260831130958 72 218 0.0 0.9 0.00 0.00 0.00 97 1009.1
20260831130452 71 207 0.0 0.9 0.00 0.00 0.00 97 1009.1
20260831125945 71 214 0.0 0.9 0.00 0.00 0.00 97 1009.1
20260831125440 71 149 0.0 0.0 0.00 0.00 0.00 97 1009.0
20260831124933 70 149 0.0 0.0 0.00 0.00 0.00 97 1008.9
20260831124659 70 148 0.0 0.0 0.00 0.00 0.00 97 1008.9
20260831123922 70 150 0.0 0.0 0.00 0.00 0.00 97 1008.9
20260831123416 70 150 0.0 0.0 0.00 0.00 0.00 97 1008.8
20260831122910 70 150 0.0 0.0 0.00 0.00 0.00 97 1008.8
20260831122404 70 149 0.0 0.0 0.00 0.00 0.00 97 1008.6
20260831121858 70 148 0.0 0.0 0.00 0.00 0.00 97 1008.5
20260831121352 70 148 0.0 0.0 0.00 0.00 0.00 97 1008.3
20260831120846 69 148 0.0 0.0 0.00 0.00 0.00 97 1008.1
20260831120610 69 150 0.0 0.0 0.00 0.00 0.00 97 1008.2
20260831115834 69 150 0.0 0.0 0.00 0.00 0.00 96 1008.1
20260831115329 69 150 0.0 0.0 0.00 0.00 0.00 96 1008.1
20260831114822 69 149 0.0 0.0 0.00 0.00 0.00 96 1008.0
20260831114547 69 150 0.0 0.0 0.00 0.00 0.00 96 1008.2
20260831113810 69 149 0.0 0.0 0.00 0.00 0.00 96 1008.1
20260831113304 69 150 0.0 0.0 0.00 0.00 0.00 96 1008.1
20260831112757 69 149 0.0 0.0 0.00 0.00 0.00 96 1007.9
20260831112252 69 149 0.0 0.0 0.00 0.00 0.00 96 1007.9
20260831111746 70 149 0.0 0.0 0.00 0.00 0.00 96 1007.9
20260831111240 70 149 0.0 0.0 0.00 0.00 0.00 96 1007.8
20260831110734 70 149 0.0 0.0 0.00 0.00 0.00 96 1007.8
20260831110228 70 150 0.0 0.0 0.00 0.00 0.00 96 1007.7
20260831105722 70 150 0.0 0.0 0.00 0.00 0.00 95 1007.8
20260831105215 70 149 0.0 0.0 0.00 0.00 0.00 95 1007.8
20260831104710 70 150 0.0 0.0 0.00 0.00 0.00 95 1007.9
20260831104204 71 149 0.0 0.0 0.00 0.00 0.00 96 1008.0
20260831103658 71 150 0.0 0.0 0.00 0.00 0.00 95 1007.8
20260831103152 71 148 0.0 0.0 0.00 0.00 0.00 95 1007.7
20260831102646 71 149 0.0 0.0 0.00 0.00 0.00 95 1007.7
20260831102140 71 149 0.0 0.0 0.00 0.00 0.00 95 1007.7
20260831101634 71 149 0.0 0.0 0.00 0.00 0.00 95 1007.7
20260831101128 71 150 0.0 0.0 0.00 0.00 0.00 95 1007.7
20260831100622 71 157 0.0 0.0 0.00 0.00 0.00 95 1007.6
20260831100116 71 156 0.0 0.0 0.00 0.00 0.00 95 1007.6
20260831095609 71 157 0.0 0.0 0.00 0.00 0.00 95 1007.5
20260831095103 71 157 0.0 0.0 0.00 0.00 0.00 95 1007.4
20260831094558 71 157 0.0 0.0 0.00 0.00 0.00 95 1007.3
20260831094052 71 157 0.0 0.0 0.00 0.00 0.00 95 1007.4
20260831093546 71 157 0.0 0.0 0.00 0.00 0.00 94 1007.3
20260831093040 71 157 0.0 0.0 0.00 0.00 0.00 94 1007.4
20260831092533 71 156 0.0 0.0 0.00 0.00 0.00 94 1007.4
20260831092028 71 156 0.0 0.0 0.00 0.00 0.00 94 1007.5
20260831091522 71 157 0.0 0.0 0.00 0.00 0.00 94 1007.5
20260831091242 71 157 0.0 0.0 0.00 0.00 0.00 94 1007.7
20260831091116 71 157 0.0 0.0 0.00 0.00 0.00 94 1007.7
20260831090004 71 157 0.0 0.0 0.00 0.00 0.00 94 1007.8
20260831085458 71 157 0.0 0.0 0.00 0.00 0.00 94 1007.6
20260831084952 71 152 0.0 0.0 0.00 0.00 0.00 93 1007.5
20260831084452 72 153 0.0 0.0 0.00 0.00 0.00 93 1007.4
20260831083949 72 152 0.0 0.0 0.00 0.00 0.00 93 1007.3
20260831083449 72 152 0.0 0.0 0.00 0.00 0.00 93 1007.4
20260831082953 72 151 0.0 0.0 0.00 0.00 0.00 93 1007.4
20260831082448 72 152 0.0 0.0 0.00 0.00 0.00 93 1007.4
20260831081946 72 152 0.0 0.0 0.00 0.00 0.00 93 1007.3
20260831081443 72 152 0.0 0.0 0.00 0.00 0.00 92 1007.3
20260831081212 72 152 0.0 0.0 0.00 0.00 0.00 92 1007.3
20260831080440 72 152 0.0 0.0 0.00 0.00 0.00 92 1007.2
20260831080209 73 151 0.0 1.7 0.00 0.00 0.00 92 1007.2
20260831075440 73 152 0.0 1.7 0.00 0.00 0.00 92 1007.1
20260831074938 73 156 0.0 0.9 0.00 0.00 0.00 92 1007.2
20260831074710 73 162 0.0 0.9 0.00 0.00 0.00 92 1007.3
20260831073937 73 201 0.0 0.9 0.00 0.00 0.00 92 1007.3
20260831073436 73 169 0.0 0.9 0.00 0.00 0.00 92 1007.2
20260831072934 73 214 0.0 0.9 0.00 0.00 0.00 92 1007.3
20260831072434 73 259 0.0 0.9 0.00 0.00 0.00 91 1007.4
20260831071930 73 259 0.0 0.9 0.00 0.00 0.00 91 1007.4
20260831071429 73 260 0.0 0.0 0.00 0.00 0.00 91 1007.5
20260831071206 73 259 0.0 0.0 0.00 0.00 0.00 91 1007.6
20260831070426 73 259 0.0 0.0 0.00 0.00 0.00 91 1007.6
20260831070152 73 226 0.0 0.0 0.00 0.00 0.00 91 1007.6
20260831065645 73 226 0.0 0.9 0.00 0.00 0.00 91 1007.5
20260831064908 73 226 0.0 0.9 0.00 0.00 0.00 91 1007.6
20260831064403 73 151 0.0 0.9 0.00 0.00 0.00 91 1007.7
20260831063856 73 246 0.0 0.0 0.00 0.00 0.00 91 1007.8
20260831063351 73 266 0.0 0.0 0.00 0.00 0.00 90 1007.8
20260831062844 73 266 0.0 0.0 0.00 0.00 0.00 90 1007.9
20260831062346 73 277 0.0 0.9 0.00 0.00 0.00 90 1008.0
20260831062342 73 266 0.0 0.9 0.00 0.00 0.00 90 1008.0
20260831061338 74 248 0.0 0.0 0.00 0.00 0.00 90 1008.0
20260831061111 74 249 0.0 0.9 0.00 0.00 0.00 90 1008.1
20260831060607 74 249 0.0 0.9 0.00 0.00 0.00 90 1008.0
20260831055837 74 254 0.0 0.9 0.00 0.00 0.00 89 1008.0
20260831055336 74 254 0.0 1.7 0.00 0.00 0.00 89 1007.9
20260831054838 74 169 0.0 1.7 0.00 0.00 0.00 89 1008.0
20260831054608 74 131 0.0 0.9 0.00 0.00 0.00 89 1008.0
20260831054105 74 227 0.0 1.7 0.00 0.00 0.00 89 1008.0
20260831053336 74 163 0.0 1.7 0.00 0.00 0.00 89 1008.1
20260831052834 74 200 0.0 0.9 0.00 0.00 0.00 89 1008.2
20260831052333 74 249 0.0 1.7 0.00 0.00 0.00 89 1008.3
20260831052103 74 295 0.0 1.7 0.00 0.00 0.00 88 1008.4
20260831051329 75 342 0.0 1.7 0.00 0.00 0.00 88 1008.4
20260831050830 75 225 0.0 1.7 0.00 0.00 0.00 88 1008.4
20260831050330 75 153 0.0 1.7 0.00 0.00 0.00 88 1008.6
20260831045831 75 179 0.0 1.7 0.00 0.00 0.00 88 1008.7
20260831045329 75 155 0.0 1.7 0.00 0.00 0.00 87 1008.7
20260831045057 75 113 0.0 1.7 0.00 0.00 0.00 87 1008.8
20260831044324 75 152 0.0 1.7 0.00 0.00 0.00 87 1008.8
20260831043825 76 283 0.0 2.6 0.00 0.00 0.00 86 1008.9
20260831043323 76 107 0.0 2.6 0.00 0.00 0.00 86 1009.0
20260831043057 76 160 0.0 0.9 0.00 0.00 0.00 86 1009.1
20260831042322 76 75 0.0 0.9 0.00 0.00 0.00 85 1008.9
20260831042050 76 276 0.0 0.9 0.00 0.00 0.00 85 1008.9
20260831041944 76 242 0.0 2.6 0.00 0.00 0.00 85 1008.9
20260831040820 76 242 0.9 5.2 0.00 0.00 0.00 84 1008.9
20260831040312 76 174 0.0 5.2 0.00 0.00 0.00 84 1008.8
20260831035806 76 212 0.9 6.1 0.00 0.00 0.00 84 1008.8
20260831035306 76 252 0.0 6.1 0.00 0.00 0.00 84 1008.8
20260831034803 76 134 0.0 2.6 0.00 0.00 0.00 83 1008.7
20260831034301 77 113 0.0 2.6 0.00 0.00 0.00 83 1008.7
20260831033803 77 240 0.0 2.6 0.00 0.00 0.00 82 1008.8
20260831033300 77 249 0.0 5.2 0.00 0.00 0.00 82 1008.8
20260831032759 77 179 0.9 5.2 0.00 0.00 0.00 82 1008.8
20260831032259 77 236 0.9 4.3 0.00 0.00 0.00 81 1008.8
20260831031800 78 152 0.9 4.3 0.00 0.00 0.00 81 1008.8
20260831031533 78 190 0.0 2.6 0.00 0.00 0.00 81 1008.7
20260831030759 78 71 0.9 4.3 0.00 0.00 0.00 80 1008.6
20260831030259 78 265 0.9 4.3 0.00 0.00 0.00 80 1008.6
20260831025759 78 91 0.9 6.1 0.00 0.00 0.00 79 1008.5
20260831025259 78 112 0.9 7.0 0.00 0.00 0.00 79 1008.5
20260831024801 78 248 0.9 7.0 0.00 0.00 0.00 78 1008.4
20260831024255 79 249 0.9 4.3 0.00 0.00 0.00 78 1008.5
20260831023755 79 309 0.9 3.5 0.00 0.00 0.00 77 1008.5
20260831023259 79 96 1.7 4.3 0.00 0.00 0.00 77 1008.5
20260831022756 79 212 1.7 4.3 0.00 0.00 0.00 76 1008.5
20260831022253 80 159 1.7 4.3 0.00 0.00 0.00 75 1008.5
20260831021753 80 205 1.7 6.1 0.00 0.00 0.00 75 1008.5
20260831021252 80 242 1.7 7.8 0.00 0.00 0.00 74 1008.4
20260831020750 80 249 1.7 11.3 0.00 0.00 0.00 74 1008.5
20260831020251 80 170 0.9 11.3 0.00 0.00 0.00 74 1008.4
20260831015749 80 169 0.9 5.2 0.00 0.00 0.00 75 1008.3
20260831015522 79 127 0.0 3.5 0.00 0.00 0.00 78 1008.2
20260831015022 79 174 0.0 1.7 0.00 0.00 0.00 83 1008.3
20260831014248 79 221 0.0 0.9 0.00 0.00 0.00 85 1008.2
20260831014020 79 208 0.0 0.9 0.00 0.00 0.00 85 1008.2
20260831013245 79 141 0.0 0.9 0.00 0.00 0.00 85 1008.2
20260831012741 79 348 0.0 0.0 0.00 0.00 0.00 85 1008.3
20260831012241 79 350 0.0 1.7 0.00 0.00 0.00 85 1008.3
20260831012008 80 333 0.0 1.7 0.00 0.00 0.00 84 1008.1
20260831011238 80 25 0.0 0.9 0.00 0.00 0.00 84 1008.0
20260831010732 80 355 0.0 0.0 0.00 0.00 0.00 84 1008.0
20260831010226 80 66 0.0 0.0 0.00 0.00 0.00 83 1008.0
20260831005720 80 66 0.0 0.0 0.00 0.00 0.00 83 1008.0
20260831005214 80 68 0.0 0.9 0.00 0.00 0.00 83 1007.9
20260831004708 81 68 0.0 0.9 0.00 0.00 0.00 82 1007.9
20260831004202 81 317 0.0 0.9 0.00 0.00 0.00 82 1007.8
20260831003656 81 34 0.0 0.9 0.00 0.00 0.00 82 1007.9
20260831003150 81 97 0.0 0.9 0.00 0.00 0.00 81 1008.0
20260831002644 81 359 0.0 0.9 0.00 0.00 0.00 81 1008.1
20260831002138 82 358 0.0 0.0 0.00 0.00 0.00 81 1008.1
20260831002133 82 358 0.0 4.3 0.00 0.00 0.00 80 1008.0
20260831001356 82 352 0.0 4.3 0.00 0.00 0.00 80 1008.1
20260831000619 82 84 0.0 1.7 0.00 0.00 0.00 80 1008.0
20260831000111 82 0 0.0 0.9 0.00 0.00 0.00 80 1008.0
20260830235606 83 94 0.0 0.9 0.00 0.00 0.00 79 1007.9
20260830235601 83 355 0.0 0.9 0.00 0.00 0.00 78 1007.9
20260830234554 83 75 0.0 1.7 0.00 0.00 0.00 78 1008.0
20260830234047 83 91 0.0 1.7 0.00 0.00 0.00 77 1008.0
20260830233541 83 85 0.0 1.7 0.00 0.00 0.00 77 1008.0
20260830233036 84 8 0.0 0.9 0.00 0.00 0.00 76 1008.1
20260830232530 84 354 0.0 2.6 0.00 0.00 0.00 76 1008.1
20260830232023 84 25 0.0 2.6 0.00 0.00 0.00 75 1008.0
20260830231518 85 15 0.0 3.5 0.00 0.00 0.00 74 1007.9
20260830231011 85 95 0.0 3.5 0.00 0.00 0.00 73 1008.0
20260830230506 85 71 0.0 3.5 0.00 0.00 0.00 73 1008.2
20260830230000 85 322 0.0 3.5 0.00 0.00 0.00 73 1008.1
20260830225454 86 359 0.0 2.6 0.00 0.00 0.00 72 1008.0
20260830224948 86 98 0.0 2.6 0.00 0.00 0.00 72 1008.0
20260830224441 87 110 0.9 5.2 0.00 0.00 0.00 71 1008.1
20260830224208 87 97 0.0 3.5 0.00 0.00 0.00 70 1008.1
20260830223700 87 336 0.0 2.6 0.00 0.00 0.00 73 1008.1
20260830223155 86 75 0.0 5.2 0.00 0.00 0.00 73 1008.1
20260830222650 85 322 0.9 5.2 0.00 0.00 0.00 72 1008.0
20260830221912 85 340 0.9 6.1 0.00 0.00 0.00 73 1007.9
20260830221406 85 345 0.9 6.1 0.00 0.00 0.00 73 1008.1
20260830220900 85 113 0.0 4.3 0.00 0.00 0.00 73 1008.2
20260830220354 85 134 0.9 4.3 0.00 0.00 0.00 75 1008.3
20260830220119 84 22 0.9 3.5 0.00 0.00 0.00 76 1008.2
20260830215612 83 339 0.9 3.5 0.00 0.00 0.00 75 1008.3
20260830214836 83 58 0.9 3.5 0.00 0.00 0.00 77 1008.3
20260830214330 84 50 0.9 4.3 0.00 0.00 0.00 75 1008.3
20260830213824 83 88 0.9 4.3 0.00 0.00 0.00 77 1008.4
20260830213318 83 122 0.0 3.5 0.00 0.00 0.00 77 1008.5
20260830212812 83 325 0.0 2.6 0.00 0.00 0.00 77 1008.6
20260830212306 83 105 0.0 2.6 0.00 0.00 0.00 76 1008.5
20260830211759 83 89 0.9 3.5 0.00 0.00 0.00 76 1008.6
20260830210748 83 184 0.9 3.5 0.00 0.00 0.00 77 1008.8
20260830210242 83 43 0.9 4.3 0.00 0.00 0.00 77 1008.7
20260830205735 83 295 0.9 4.3 0.00 0.00 0.00 76 1008.7
20260830205231 83 18 0.9 3.5 0.00 0.00 0.00 78 1008.7
20260830204724 82 300 0.9 3.5 0.00 0.00 0.00 79 1008.8
20260830204218 82 146 0.9 3.5 0.00 0.00 0.00 79 1008.8
20260830203942 81 149 0.9 2.6 0.00 0.00 0.00 79 1008.8
20260830203205 82 120 0.9 4.3 0.00 0.00 0.00 78 1008.7
20260830202659 82 125 0.9 4.3 0.00 0.00 0.00 78 1008.7
20260830202154 82 338 0.9 4.3 0.00 0.00 0.00 77 1008.7
20260830201921 83 343 0.9 6.1 0.00 0.00 0.00 76 1008.7
20260830201142 83 277 0.9 6.1 0.00 0.00 0.00 77 1008.6
20260830200635 83 331 0.9 3.5 0.00 0.00 0.00 76 1008.6
20260830200130 83 9 0.9 4.3 0.00 0.00 0.00 77 1008.7
20260830195854 82 0 0.9 4.3 0.00 0.00 0.00 79 1008.8
20260830195117 82 15 0.9 5.2 0.00 0.00 0.00 80 1008.8
20260830194612 81 85 1.7 6.1 0.00 0.00 0.00 78 1008.8
20260830194106 81 155 0.9 6.1 0.00 0.00 0.00 80 1008.7
20260830193600 80 12 0.9 4.3 0.00 0.00 0.00 81 1009.1
20260830193054 80 276 0.9 3.5 0.00 0.00 0.00 81 1009.3
20260830192548 80 359 0.9 2.6 0.00 0.00 0.00 81 1009.5
20260830192042 80 345 0.9 2.6 0.00 0.00 0.00 82 1009.6
20260830191536 79 15 0.9 2.6 0.00 0.00 0.00 81 1009.6
20260830191030 79 319 0.0 2.6 0.00 0.00 0.00 82 1009.7
20260830190524 79 39 0.0 2.6 0.00 0.00 0.00 82 1009.9
20260830190018 79 46 0.0 2.6 0.00 0.00 0.00 83 1009.9
20260830185512 79 346 0.0 1.7 0.00 0.00 0.00 81 1009.9
20260830185006 79 18 0.0 1.7 0.00 0.00 0.00 83 1010.0
20260830184500 79 108 0.0 1.7 0.00 0.00 0.00 85 1010.0
20260830184224 78 345 0.0 0.9 0.00 0.00 0.00 84 1010.0
20260830183448 78 312 0.0 0.9 0.00 0.00 0.00 85 1010.1
20260830182941 77 98 0.0 0.9 0.00 0.00 0.00 85 1010.1
20260830182436 77 72 0.0 1.7 0.00 0.00 0.00 85 1009.8
20260830182201 77 330 0.0 1.7 0.00 0.00 0.00 85 1009.9
20260830181424 77 98 0.0 1.7 0.00 0.00 0.00 85 1010.1
20260830180917 77 33 0.0 1.7 0.00 0.00 0.00 85 1010.1
20260830180412 77 145 0.0 2.6 0.00 0.00 0.00 86 1010.2
20260830175906 77 6 0.0 4.3 0.00 0.00 0.00 85 1010.3
20260830175359 77 109 0.0 4.3 0.00 0.00 0.00 85 1010.2
20260830174854 76 336 0.0 2.6 0.00 0.00 0.00 85 1010.2
20260830174348 76 340 0.0 0.9 0.00 0.00 0.00 86 1010.2
20260830173841 76 20 0.0 0.9 0.00 0.00 0.00 86 1010.1
20260830173336 76 330 0.0 0.9 0.00 0.00 0.00 86 1010.3
20260830172830 76 99 0.0 2.6 0.00 0.00 0.00 86 1010.3
20260830172324 76 337 0.0 2.6 0.00 0.00 0.00 86 1010.4
20260830171818 76 312 0.0 0.9 0.00 0.00 0.00 86 1010.4
20260830171312 76 222 0.0 0.9 0.00 0.00 0.00 86 1010.3
20260830170806 76 115 0.0 2.6 0.00 0.00 0.00 86 1010.1
20260830170259 76 343 0.0 2.6 0.00 0.00 0.00 86 1010.2
20260830165754 76 291 0.0 6.1 0.00 0.00 0.00 86 1009.9
20260830165249 75 127 0.0 6.1 0.00 0.00 0.00 86 1009.9
20260830165243 75 356 0.0 2.6 0.00 0.00 0.00 87 1009.9
20260830164236 75 345 0.0 2.6 0.00 0.00 0.00 87 1010.1
20260830163730 75 322 0.0 1.7 0.00 0.00 0.00 87 1010.0
20260830163223 75 338 0.0 1.7 0.00 0.00 0.00 87 1010.0
20260830162718 75 341 0.0 4.3 0.00 0.00 0.00 87 1009.9
20260830162219 75 335 0.9 4.3 0.00 0.00 0.00 87 1009.9
20260830161706 75 356 0.0 2.6 0.00 0.00 0.00 88 1009.8
20260830161430 74 339 0.0 2.6 0.00 0.00 0.00 88 1009.8
20260830160925 74 308 0.0 2.6 0.00 0.00 0.00 88 1009.8
20260830160147 74 39 0.0 3.5 0.00 0.00 0.00 88 1009.8
20260830155642 74 40 0.0 3.5 0.00 0.00 0.00 87 1009.8
20260830155136 74 356 0.0 0.9 0.00 0.00 0.00 87 1010.0
20260830154629 74 358 0.0 1.7 0.00 0.00 0.00 88 1010.0
20260830154123 74 350 0.0 1.7 0.00 0.00 0.00 88 1010.0
20260830153617 74 345 0.0 1.7 0.00 0.00 0.00 87 1010.0
20260830153111 74 98 0.0 1.7 0.00 0.00 0.00 88 1009.8
20260830152606 74 345 0.0 1.7 0.00 0.00 0.00 89 1010.1
20260830152100 73 93 0.0 3.5 0.00 0.00 0.00 90 1010.1
20260830151559 73 67 0.0 3.5 0.00 0.00 0.00 89 1009.9
20260830151048 73 345 0.0 1.7 0.00 0.00 0.00 89 1009.5
20260830150542 73 71 0.0 2.6 0.00 0.00 0.00 89 1009.3
20260830150307 72 15 0.0 2.6 0.00 0.00 0.00 89 1009.7
20260830145530 72 348 0.0 2.6 0.00 0.00 0.00 90 1009.8